"Pseudo-MPEC" for P217OH4

Created 2020 Oct 20 21:07:41 UT using Find_Orb

Click here for an explanation of pseudo-MPECs

 
 Astrometry: 
     P217OH4  C2020 10 14tK_9'_^K%q!`lLe1!=HTfJ=f*LdUEhk@:PYu6qFoh05NOFOmH]3LF52
     P217OH4  C2020 10 14yVce,WFaYOQ*P!rR1aZ`acScFf5!@F[]1aCB-w^@M5JWjw/!^C,IF52
     P217OH4  C2020 10 14c,jy-0yiG0*E-lBk2oZ]%45r2Brl\K\52F4UGx`l_R5*^?UeDiTJF52
     P217OH4  C2020 10 14bAG4_mJd)9QO',PFC?x2JqJiLi3x7X?8lX+qw4dN=l4nL[kk3W;*F52
     P217OH4 KC2020 10 15'^WKKsI=QhUwF;HC)3K!%`I+u:v.Kl9R*JWVCAstrometrysNH(K711
     P217OH4 KC2020 10 15ICNl'ar(@XQK-k!;m.HxXZT!`'O/cUXa)$hDPpbGiolD1b8?d6xD711
     P217OH4 KC2020 10 15DS+%]nh8Oredacted;u^qs5g7Q4ZGZ$2BpQ-`)+^]jct^,2click711
     P217OH4  C2020 10 155aW-4lNKw=_Dw=Vt4b'tEf3(WPo\h4L)k3=7;B4X[3VyiPg+1;QwF51
     P217OH4  C2020 10 15N3T%jJ;28A)T3tp0.(ku^DeheJy'!Q/5_4%/*7!K-*ZAX*QA2vKAF51
     P217OH4  C2020 10 15[m,,mg-xwv]e!GomHu-Uu?9L`%I#PD8DPDkr,Co(ZZ*'*Q*%Qk4MF51
     P217OH4  C2020 10 150'Sq,N7@5+eZ#KWLS7`7sjh#I@n7GX)%W1WR+q??Bvku3R3,vUcuF51
     P217OH4 *C2020 10 1517vj0ws5.++?7j\./!P+G%rSl%OHh)wAtD+K=@3%Rmo4!X6+c7e5E10
     P217OH4 *C2020 10 15jWnsY7#Wkx+5)0,#Cc(uVQ0X/=L7(a[:VTsmW*^/5M8yY;BBwyN(E10
     P217OH4 *C2020 10 151](NcsWKTK[bD(tO@)mBL7`hereI5XHc`3!Bad;riICJ2B,,qL5iE10
     P217OH4 *C2020 10 15s1aIHI^ZK!u^=EA3r0\;5nfor7uT.HjRAU9A$;DvoK-th-oU%Z8tE10
     P217OH4  C2020 10 20o`2D;tl_h:@cs5b5e1-6?\%LQZQeL%Zgk%\fKulm5f1bsRg*9$#OF52
     P217OH4  C2020 10 20]O[qZFD`[eQ:GqeB31*xt`KN/?,3oCbP:CP8]1#hKJ`kFXXXV,#'F52
     P217OH4  C2020 10 202+6+k#4f*Nc[AFexplanationDhrI(cI`A'#Q3ZXy?H+0_DFDL/YF52

Station data:
(711) McDonald Observatory, Fort Davis  (N30.671481 W104.021500)  US/Texas.
   0.76-m f/3.0 reflector.
(E10) Siding Spring-Faulkes Telescope South  (S31.273173 E149.070280)
   Australia/NSW.
(F51) Pan-STARRS 1, Haleakala  (N20.707235 W156.255910)  US/Hawaii.
   Observers N. Primak, A. Schultz, S. Watters, J. Thiel, T. Goggia. Measurer
   PS1 Science Consortium. 1.8-m Ritchey-Chrétien + CCD.
(F52) Pan-STARRS 2, Haleakala  (N20.707384 W156.255910)  US/Hawaii. 1.8-m
   Ritchey-Chrétien + CCD.

Orbital elements:  P217OH4
   Perihelion 2020 Nov 7.534103 +/- 1.45 TT = 12:49:06 (JD 2459161.034103)
Epoch 2020 Oct 20.0 TT = JDT 2459142.5                        AutoNEOCP
M 358.91160314 +/- 0.13             (J2000 ecliptic)
n   0.05872401 +/- 0.00409          Peri.  218.06548 +/- 0.51
a   6.55529498 +/- 0.304            Node   217.26691 +/- 0.18
e   0.6474915 +/- 0.0151            Incl.   46.77626 +/- 0.19
P  16.78                   H 17.5   G  0.15   U  9.1  
q 2.31079713 +/- 0.00778    Q 10.7997928 +/- 0.572
From 18 observations 2020 Oct. 14-20; mean residual 0".32
Residuals in arcseconds: 
201014 F52  .16+  .04+    201015 711  .26-  .52+    201015 E10  .24+  .13-    
201014 F52  .08+  .12+    201015 F51  .21+  .29-    201015 E10  .51+  .06-    
201014 F52  .09+  .30-    201015 F51  .23+  .33-    201015 E10  .03+  .07-    
201014 F52  .09-  .08-    201015 F51  .22+  .30-    201020 F52  .01-  .06-    
201015 711  .91-  .39+    201015 F51  .22+  .23-    201020 F52  .04+  .04+    
201015 711  .60-  .85+    201015 E10  .13+  .39-    201020 F52  .04-  .03+    

Ephemerides (geocentric):
Date (UTC) HH   RA              Dec         delta   r     elong  mag " sig PA
---- -- -- --  -------------   -----------  ------ ------ -----  --- ---- ---
2020 10 20 21  05 34 38.604   -08 57 56.20  1.6631 2.3164 119.1 21.5 .177  85
2020 10 20 22  05 34 39.364   -08 59 12.18  1.6628 2.3164 119.1 21.5 .191  85
2020 10 20 23  05 34 40.120   -09 00 28.17  1.6625 2.3163 119.1 21.5 .206  84
2020 10 21 00  05 34 40.874   -09 01 44.18  1.6622 2.3163 119.1 21.5 .221  84
2020 10 21 01  05 34 41.625   -09 03 00.19  1.6619 2.3163 119.2 21.5 .236  84
2020 10 21 02  05 34 42.372   -09 04 16.21  1.6616 2.3163 119.2 21.5 .251  84
2020 10 21 03  05 34 43.117   -09 05 32.25  1.6613 2.3162 119.2 21.5 .266  84
2020 10 21 04  05 34 43.859   -09 06 48.29  1.6610 2.3162 119.2 21.5 .282  83
2020 10 21 05  05 34 44.598   -09 08 04.35  1.6607 2.3162 119.3 21.5 .298  83
2020 10 21 06  05 34 45.334   -09 09 20.41  1.6604 2.3162 119.3 21.5 .314  83
2020 10 21 07  05 34 46.066   -09 10 36.49  1.6602 2.3161 119.3 21.5 .330  83
2020 10 21 08  05 34 46.796   -09 11 52.58  1.6599 2.3161 119.3 21.5 .347  83
2020 10 21 09  05 34 47.523   -09 13 08.67  1.6596 2.3161 119.3 21.5 .363  83
2020 10 21 10  05 34 48.247   -09 14 24.78  1.6593 2.3161 119.4 21.5 .380  83
2020 10 21 11  05 34 48.968   -09 15 40.90  1.6590 2.3160 119.4 21.5 .397  83
2020 10 21 12  05 34 49.686   -09 16 57.03  1.6587 2.3160 119.4 21.5 .415  83
2020 10 21 13  05 34 50.401   -09 18 13.16  1.6584 2.3160 119.4 21.5 .432  83
2020 10 21 14  05 34 51.113   -09 19 29.31  1.6581 2.3159 119.5 21.5 .450  83
2020 10 21 15  05 34 51.822   -09 20 45.47  1.6578 2.3159 119.5 21.5 .468  83
2020 10 21 16  05 34 52.528   -09 22 01.64  1.6576 2.3159 119.5 21.5 .486  82
2020 10 21 17  05 34 53.231   -09 23 17.82  1.6573 2.3159 119.5 21.5 .504  82
2020 10 21 18  05 34 53.931   -09 24 34.00  1.6570 2.3158 119.6 21.5 .522  82
2020 10 21 19  05 34 54.628   -09 25 50.20  1.6567 2.3158 119.6 21.4 .541  82
2020 10 21 20  05 34 55.322   -09 27 06.41  1.6564 2.3158 119.6 21.4 .560  82
2020 10 21 21  05 34 56.013   -09 28 22.63  1.6561 2.3158 119.6 21.4 .579  82
2020 10 21 22  05 34 56.701   -09 29 38.85  1.6558 2.3157 119.6 21.4 .598  82
2020 10 21 23  05 34 57.386   -09 30 55.09  1.6556 2.3157 119.7 21.4 .617  82
2020 10 22 00  05 34 58.069   -09 32 11.33  1.6553 2.3157 119.7 21.4 .637  82
2020 10 22 01  05 34 58.748   -09 33 27.59  1.6550 2.3157 119.7 21.4 .657  82
2020 10 22 02  05 34 59.424   -09 34 43.85  1.6547 2.3156 119.7 21.4 .677  82
2020 10 22 03  05 35 00.097   -09 36 00.12  1.6544 2.3156 119.8 21.4 .697  82
2020 10 22 04  05 35 00.767   -09 37 16.41  1.6541 2.3156 119.8 21.4 .718  82
2020 10 22 05  05 35 01.434   -09 38 32.70  1.6539 2.3156 119.8 21.4 .738  82
2020 10 22 06  05 35 02.099   -09 39 49.00  1.6536 2.3156 119.8 21.4 .759  82
2020 10 22 07  05 35 02.760   -09 41 05.31  1.6533 2.3155 119.9 21.4 .780  82
2020 10 22 08  05 35 03.418   -09 42 21.63  1.6530 2.3155 119.9 21.4 .801  82
2020 10 22 09  05 35 04.073   -09 43 37.95  1.6527 2.3155 119.9 21.4 .823  82
2020 10 22 10  05 35 04.726   -09 44 54.29  1.6525 2.3155 119.9 21.4 .844  82
2020 10 22 11  05 35 05.375   -09 46 10.63  1.6522 2.3154 119.9 21.4 .866  82
2020 10 22 12  05 35 06.021   -09 47 26.99  1.6519 2.3154 120.0 21.4 .888  82
2020 10 22 13  05 35 06.664   -09 48 43.35  1.6516 2.3154 120.0 21.4 .910  82
2020 10 22 14  05 35 07.305   -09 49 59.72  1.6513 2.3154 120.0 21.4 .933  82
2020 10 22 15  05 35 07.942   -09 51 16.10  1.6511 2.3153 120.0 21.4 .955  82
2020 10 22 16  05 35 08.576   -09 52 32.49  1.6508 2.3153 120.1 21.4 .978  82
2020 10 22 17  05 35 09.208   -09 53 48.88  1.6505 2.3153 120.1 21.4 1.00  82
2020 10 22 18  05 35 09.836   -09 55 05.29  1.6502 2.3153 120.1 21.4 1.02  82
2020 10 22 19  05 35 10.461   -09 56 21.70  1.6499 2.3152 120.1 21.4 1.05  82
2020 10 22 20  05 35 11.083   -09 57 38.12  1.6497 2.3152 120.1 21.4 1.07  82